Year,Month,Day,Hour,Minute,Value (Times are PST for temperature in C)
2009,03,26,10,23,7.20
2009,03,26,10,24,7.30
2009,03,26,10,25,7.30
2009,03,26,10,26,7.40
2009,03,26,10,27,7.40
2009,03,26,10,28,7.40
2009,03,26,10,29,7.40
2009,03,26,10,30,7.40
2009,03,26,10,31,7.50
2009,03,26,10,32,7.50
2009,03,26,10,33,7.50
2009,03,26,10,34,7.50
2009,03,26,10,35,7.50
2009,03,26,10,36,7.50
2009,03,26,10,37,7.50
2009,03,26,10,38,7.60
2009,03,26,10,39,7.60
2009,03,26,10,40,7.60
2009,03,26,10,41,7.60
2009,03,26,10,42,7.60
2009,03,26,10,43,7.70
2009,03,26,10,44,7.70
2009,03,26,10,45,7.70
2009,03,26,10,46,7.70
2009,03,26,10,47,7.80
2009,03,26,10,48,7.80
2009,03,26,10,49,7.80
2009,03,26,10,50,7.90
2009,03,26,10,51,7.90
2009,03,26,10,52,7.80
2009,03,26,10,53,7.80
2009,03,26,10,54,7.70
2009,03,26,10,55,7.70
2009,03,26,10,56,7.70
2009,03,26,10,57,7.70
2009,03,26,10,58,7.70
2009,03,26,10,59,7.70
2009,03,26,11,00,7.70
2009,03,26,11,01,7.80
2009,03,26,11,02,7.80
2009,03,26,11,03,7.80
2009,03,26,11,04,7.90
2009,03,26,11,05,7.90
2009,03,26,11,06,7.90
2009,03,26,11,07,7.90
2009,03,26,11,08,7.90
2009,03,26,11,09,7.90
2009,03,26,11,10,7.90
2009,03,26,11,11,7.90
2009,03,26,11,12,7.90
2009,03,26,11,13,7.90
2009,03,26,11,14,7.90
2009,03,26,11,15,7.90
2009,03,26,11,16,7.90
2009,03,26,11,17,7.90
2009,03,26,11,18,7.90
2009,03,26,11,19,7.90
2009,03,26,11,20,7.90
2009,03,26,11,21,8.00
2009,03,26,11,22,8.00
2009,03,26,11,23,8.00
2009,03,26,11,24,8.00
2009,03,26,11,25,8.00
2009,03,26,11,26,8.00
2009,03,26,11,27,8.00
2009,03,26,11,28,8.10
2009,03,26,11,29,8.10
2009,03,26,11,30,8.10
2009,03,26,11,31,8.10
2009,03,26,11,32,8.20
2009,03,26,11,33,8.20
2009,03,26,11,34,8.20
2009,03,26,11,35,8.30
2009,03,26,11,36,8.20
2009,03,26,11,37,8.20
2009,03,26,11,38,8.20
2009,03,26,11,39,8.30
2009,03,26,11,40,8.30
2009,03,26,11,41,8.30
2009,03,26,11,42,8.30
2009,03,26,11,43,8.40
2009,03,26,11,44,8.50
2009,03,26,11,45,8.50
2009,03,26,11,46,8.40
2009,03,26,11,47,8.40
2009,03,26,11,48,8.30
2009,03,26,11,49,8.30
2009,03,26,11,50,8.30
2009,03,26,11,51,8.30
2009,03,26,11,52,8.30
2009,03,26,11,53,8.30
2009,03,26,11,54,8.30
2009,03,26,11,55,8.30
2009,03,26,11,56,8.30
2009,03,26,11,57,8.30
2009,03,26,11,58,8.30
2009,03,26,11,59,8.30
2009,03,26,12,00,8.40
2009,03,26,12,01,8.30
2009,03,26,12,02,8.40
2009,03,26,12,03,8.40
2009,03,26,12,04,8.30
2009,03,26,12,05,8.30
2009,03,26,12,06,8.30
2009,03,26,12,07,8.30
2009,03,26,12,08,8.30
2009,03,26,12,09,8.40
2009,03,26,12,10,8.40
2009,03,26,12,11,8.50
2009,03,26,12,12,8.50
2009,03,26,12,13,8.50
2009,03,26,12,14,8.50
2009,03,26,12,15,8.60
2009,03,26,12,16,8.70
2009,03,26,12,17,8.70
2009,03,26,12,18,8.70
2009,03,26,12,19,8.70
2009,03,26,12,20,8.70
2009,03,26,12,21,8.70
2009,03,26,12,22,8.70
2009,03,26,12,23,8.70
2009,03,26,12,24,8.60
2009,03,26,12,25,8.60
2009,03,26,12,26,8.60
2009,03,26,12,27,8.60
2009,03,26,12,28,8.60
2009,03,26,12,29,8.50
2009,03,26,12,30,8.40
2009,03,26,12,31,8.40
2009,03,26,12,32,8.40
2009,03,26,12,33,8.40
2009,03,26,12,34,8.30
2009,03,26,12,35,8.30
2009,03,26,12,36,8.40
2009,03,26,12,37,8.40
2009,03,26,12,38,8.50
2009,03,26,12,39,8.60
2009,03,26,12,40,8.60
2009,03,26,12,41,8.50
2009,03,26,12,42,8.40
2009,03,26,12,43,8.50
2009,03,26,12,44,8.60
2009,03,26,12,45,8.80
2009,03,26,12,46,8.90
2009,03,26,12,47,8.90
2009,03,26,12,48,8.90
2009,03,26,12,49,8.90
2009,03,26,12,50,8.90
2009,03,26,12,51,8.90
2009,03,26,12,52,8.90
2009,03,26,12,53,8.80
2009,03,26,12,54,8.90
2009,03,26,12,55,8.90
2009,03,26,12,56,8.80
2009,03,26,12,57,8.80
2009,03,26,12,58,8.90
2009,03,26,12,59,8.90
2009,03,26,13,00,8.90
2009,03,26,13,01,8.90
2009,03,26,13,02,8.90
2009,03,26,13,03,9.00
2009,03,26,13,04,9.10
2009,03,26,13,05,9.10
2009,03,26,13,06,9.10
2009,03,26,13,07,9.00
2009,03,26,13,08,8.90
2009,03,26,13,09,8.80
2009,03,26,13,10,8.80
2009,03,26,13,11,8.90
2009,03,26,13,12,9.00
2009,03,26,13,13,9.00
2009,03,26,13,14,9.00
2009,03,26,13,15,8.90
2009,03,26,13,16,8.90
2009,03,26,13,17,8.80
2009,03,26,13,18,8.80
2009,03,26,13,19,8.80
2009,03,26,13,20,8.80
2009,03,26,13,21,8.80
2009,03,26,13,22,8.80
2009,03,26,13,23,8.90
2009,03,26,13,24,8.90
2009,03,26,13,25,9.00
2009,03,26,13,26,9.10
2009,03,26,13,27,9.20
2009,03,26,13,28,9.30
2009,03,26,13,29,9.40
2009,03,26,13,30,9.40
2009,03,26,13,31,9.40
2009,03,26,13,32,9.40
2009,03,26,13,33,9.30
2009,03,26,13,34,9.30
2009,03,26,13,35,9.30
2009,03,26,13,36,9.20
2009,03,26,13,37,9.10
2009,03,26,13,38,9.00
2009,03,26,13,39,9.00
2009,03,26,13,40,9.00
2009,03,26,13,41,8.90
2009,03,26,13,42,8.80
2009,03,26,13,43,8.80
2009,03,26,13,44,8.70
2009,03,26,13,45,8.70
2009,03,26,13,46,8.60
2009,03,26,13,47,8.60
2009,03,26,13,48,8.60
2009,03,26,13,49,8.60
2009,03,26,13,50,8.60
2009,03,26,13,51,8.60
2009,03,26,13,52,8.50
2009,03,26,13,53,8.50
2009,03,26,13,54,8.40
2009,03,26,13,55,8.40
2009,03,26,13,56,8.40
2009,03,26,13,57,8.40
2009,03,26,13,58,8.40
2009,03,26,13,59,8.30
2009,03,26,14,00,8.30
2009,03,26,14,01,8.30
2009,03,26,14,02,8.30
2009,03,26,14,03,8.30
2009,03,26,14,04,8.30
2009,03,26,14,05,8.30
2009,03,26,14,06,8.30
2009,03,26,14,07,8.30
2009,03,26,14,08,8.30
2009,03,26,14,09,8.20
2009,03,26,14,10,8.20
2009,03,26,14,11,8.30
2009,03,26,14,12,8.40
2009,03,26,14,13,8.40
2009,03,26,14,14,8.40
2009,03,26,14,15,8.50
2009,03,26,14,16,8.50
2009,03,26,14,17,8.60
2009,03,26,14,18,8.60
2009,03,26,14,19,8.60
2009,03,26,14,20,8.50
2009,03,26,14,21,8.50
2009,03,26,14,22,8.40
2009,03,26,14,23,8.30
2009,03,26,14,24,8.30
2009,03,26,14,25,8.30
2009,03,26,14,26,8.30
2009,03,26,14,27,8.20
2009,03,26,14,28,8.20
2009,03,26,14,29,8.20
2009,03,26,14,30,8.20
2009,03,26,14,31,8.20
2009,03,26,14,32,8.20
2009,03,26,14,33,8.20
2009,03,26,14,34,8.10
2009,03,26,14,35,8.10
2009,03,26,14,36,8.10
2009,03,26,14,37,8.10
2009,03,26,14,38,8.20
2009,03,26,14,39,8.20
2009,03,26,14,40,8.20
2009,03,26,14,41,8.10
2009,03,26,14,42,8.10
2009,03,26,14,43,8.10
2009,03,26,14,44,8.10
2009,03,26,14,45,8.10
2009,03,26,14,46,8.10
2009,03,26,14,47,8.10
2009,03,26,14,48,8.00
2009,03,26,14,49,8.00
2009,03,26,14,50,8.00
2009,03,26,14,51,8.00
2009,03,26,14,52,8.00
2009,03,26,14,53,8.00
2009,03,26,14,54,8.00
2009,03,26,14,55,8.00
2009,03,26,14,56,8.00
2009,03,26,14,57,8.00
2009,03,26,14,58,7.90
2009,03,26,14,59,7.90
2009,03,26,15,00,8.00
2009,03,26,15,01,8.00
2009,03,26,15,02,8.10
2009,03,26,15,03,8.10
2009,03,26,15,04,8.20
2009,03,26,15,05,8.10
2009,03,26,15,06,8.10
2009,03,26,15,07,8.00
2009,03,26,15,08,8.00
2009,03,26,15,09,8.00
2009,03,26,15,10,7.90
2009,03,26,15,11,7.90
2009,03,26,15,12,7.90
2009,03,26,15,13,7.90
2009,03,26,15,14,7.90
2009,03,26,15,15,8.00
2009,03,26,15,16,8.10
2009,03,26,15,17,8.10
2009,03,26,15,18,8.10
2009,03,26,15,19,8.10
2009,03,26,15,20,8.10
2009,03,26,15,21,8.20
2009,03,26,15,22,8.20
2009,03,26,15,23,8.30
2009,03,26,15,24,8.40
2009,03,26,15,25,8.40
2009,03,26,15,26,8.30
2009,03,26,15,27,8.30
2009,03,26,15,28,8.30
2009,03,26,15,29,8.30
2009,03,26,15,30,8.30
2009,03,26,15,31,8.30
2009,03,26,15,32,8.20
2009,03,26,15,33,8.20
2009,03,26,15,34,8.20
2009,03,26,15,35,8.20
2009,03,26,15,36,8.20
2009,03,26,15,37,8.20
2009,03,26,15,38,8.20
2009,03,26,15,39,8.20
2009,03,26,15,40,8.20
2009,03,26,15,41,8.20
2009,03,26,15,42,8.20
2009,03,26,15,43,8.20
2009,03,26,15,44,8.30
2009,03,26,15,45,8.30
2009,03,26,15,46,8.30
2009,03,26,15,47,8.30
2009,03,26,15,48,8.30
2009,03,26,15,49,8.30
2009,03,26,15,50,8.30
2009,03,26,15,51,8.30
2009,03,26,15,52,8.30
2009,03,26,15,53,8.30
2009,03,26,15,54,8.30
2009,03,26,15,55,8.40
2009,03,26,15,56,8.40
2009,03,26,15,57,8.50
2009,03,26,15,58,8.50
2009,03,26,15,59,8.60
2009,03,26,16,00,8.60
2009,03,26,16,01,8.60
2009,03,26,16,02,8.60
2009,03,26,16,03,8.60
2009,03,26,16,04,8.60
2009,03,26,16,05,8.60
2009,03,26,16,06,8.60
2009,03,26,16,07,8.60
2009,03,26,16,08,8.60
2009,03,26,16,09,8.60
2009,03,26,16,10,8.60
2009,03,26,16,11,8.60
2009,03,26,16,12,8.60
2009,03,26,16,13,8.70
2009,03,26,16,14,8.70
2009,03,26,16,15,8.70
2009,03,26,16,16,8.70
2009,03,26,16,17,8.70
2009,03,26,16,18,8.70
2009,03,26,16,19,8.70
2009,03,26,16,20,8.70
2009,03,26,16,21,8.80
2009,03,26,16,22,8.80
2009,03,26,16,23,8.80
2009,03,26,16,24,8.80
2009,03,26,16,25,8.80
2009,03,26,16,26,8.80
2009,03,26,16,27,8.80
2009,03,26,16,28,8.80
2009,03,26,16,29,8.70
2009,03,26,16,30,8.70
2009,03,26,16,31,8.70
2009,03,26,16,32,8.70
2009,03,26,16,33,8.70
2009,03,26,16,34,8.70
2009,03,26,16,35,8.70
2009,03,26,16,36,8.70
2009,03,26,16,37,8.70
2009,03,26,16,38,8.70
2009,03,26,16,39,8.60
2009,03,26,16,40,8.60
2009,03,26,16,41,8.60
2009,03,26,16,42,8.60
2009,03,26,16,43,8.60
2009,03,26,16,44,8.60
2009,03,26,16,45,8.60
2009,03,26,16,46,8.60
2009,03,26,16,47,8.60
2009,03,26,16,48,8.60
2009,03,26,16,49,8.60
2009,03,26,16,50,8.60
2009,03,26,16,51,8.60
2009,03,26,16,52,8.60
2009,03,26,16,53,8.60
2009,03,26,16,54,8.60
2009,03,26,16,55,8.70
2009,03,26,16,56,8.60
2009,03,26,16,57,8.60
2009,03,26,16,58,8.60
2009,03,26,16,59,8.60
2009,03,26,17,00,8.60
2009,03,26,17,01,8.60
2009,03,26,17,02,8.60
2009,03,26,17,03,8.60
2009,03,26,17,04,8.60
2009,03,26,17,05,8.60
2009,03,26,17,06,8.60
2009,03,26,17,07,8.60
2009,03,26,17,08,8.60
2009,03,26,17,09,8.60
2009,03,26,17,10,8.50
2009,03,26,17,11,8.50
2009,03,26,17,12,8.50
2009,03,26,17,13,8.60
2009,03,26,17,14,8.60
2009,03,26,17,15,8.60
2009,03,26,17,16,8.60
2009,03,26,17,17,8.60
2009,03,26,17,18,8.60
2009,03,26,17,19,8.60
2009,03,26,17,20,8.60
2009,03,26,17,21,8.60
2009,03,26,17,22,8.70
2009,03,26,17,23,8.70
2009,03,26,17,24,8.70
2009,03,26,17,25,8.70
2009,03,26,17,26,8.60
2009,03,26,17,27,8.60
2009,03,26,17,28,8.60
2009,03,26,17,29,8.70
2009,03,26,17,30,8.60
2009,03,26,17,31,8.60
2009,03,26,17,32,8.60
2009,03,26,17,33,8.60
2009,03,26,17,34,8.60
2009,03,26,17,35,8.60
2009,03,26,17,36,8.60
2009,03,26,17,37,8.60
2009,03,26,17,38,8.60
2009,03,26,17,39,8.60
2009,03,26,17,40,8.60
2009,03,26,17,41,8.60
2009,03,26,17,42,8.60
2009,03,26,17,43,8.60
2009,03,26,17,44,8.60
2009,03,26,17,45,8.60
2009,03,26,17,46,8.60
2009,03,26,17,47,8.60
2009,03,26,17,48,8.60
2009,03,26,17,49,8.50
2009,03,26,17,50,8.50
2009,03,26,17,51,8.40
2009,03,26,17,52,8.40
2009,03,26,17,53,8.40
2009,03,26,17,54,8.40
2009,03,26,17,55,8.40
2009,03,26,17,56,8.40
2009,03,26,17,57,8.40
2009,03,26,17,58,8.40
2009,03,26,17,59,8.40
2009,03,26,18,00,8.40
2009,03,26,18,01,8.40
2009,03,26,18,02,8.30
2009,03,26,18,03,8.30
2009,03,26,18,04,8.30
2009,03,26,18,05,8.30
2009,03,26,18,06,8.30
2009,03,26,18,07,8.30
2009,03,26,18,08,8.30
2009,03,26,18,09,8.30
2009,03,26,18,10,8.30
2009,03,26,18,11,8.30
2009,03,26,18,12,8.30
2009,03,26,18,13,8.30
2009,03,26,18,14,8.30
2009,03,26,18,15,8.30
2009,03,26,18,16,8.30
2009,03,26,18,17,8.30
2009,03,26,18,18,8.30
2009,03,26,18,19,8.20
2009,03,26,18,20,8.20
2009,03,26,18,21,8.20
2009,03,26,18,22,8.20
2009,03,26,18,23,8.20
2009,03,26,18,24,8.20
2009,03,26,18,25,8.20
2009,03,26,18,26,8.20
2009,03,26,18,27,8.20
2009,03,26,18,28,8.20
2009,03,26,18,29,8.20
2009,03,26,18,30,8.20
2009,03,26,18,31,8.20
2009,03,26,18,32,8.20
